Zurück zum Katalog

STARLINK-33698

AktivKommunikationVLEO
NORAD 63420·PAYLOAD·🇺🇸 United States

Gestartet Mar 31, 2025 von Cape Canaveral Space Force Station

Loading…

Nächste Überflüge (nächste 24 Stunden)

TLE

AktuellSource: CelesTrak SupGP

Epoche: Sep 14, 2026, 21:16 UTC

1 63420C 25065X   26257.88659722 -.00012782  00000+0 -46309-3 0  2575
2 63420  43.0002 118.2460 0001350 268.7580 263.5297 15.27576671    15

Verfolge STARLINK-33698 in Echtzeit mit AllMySat

Download on the App Store